Temp
-15 -16 -16 -17 -17 -17 -17 -18 -17 -18 -18 -19 -18 -17 -17 -17 -17 -17 -17 -18 -18 -18 -18 -18 -18 -18 -19 -19 -19 -19 -19 -19 -19 -20 -20 -20 -21 -21 -21 -21 -22 -21 -21 -22
-16 -16 -17 -17 -17 -18 -18 -18 -18 -18 -18 -17 -18 -18 -17 -18 -18 -18 -18 -18 -18 -18 -18 -18 -19 -19 -19 -19 -19 -19 -19 -19 -19 -20 -20 -21 -21 -21 -22 -22 -22 -22 -22 -22
-16 -17 -17 -17 -18 -17 -17 -18 -18 -18 -18 -18 -18 -18 -18 -18 -18 -17 -17 -18 -18 -18 -18 -19 -19 -19 -19 -19 -19 -20 -20 -20 -20 -20 -21 -21 -22 -22 -23 -23 -23 -23 -23 -23
-17 -17 -17 -18 -18 -18 -18 -18 -18 -17 -18 -18 -18 -18 -19 -18 -17 -18 -18 -18 -18 -18 -19 -19 -19 -19 -19 -19 -19 -19 -19 -20 -21 -21 -21 -21 -22 -23 -24 -24 -24 -24 -24 -24
-17 -18 -18 -18 -18 -18 -19 -18 -18 -18 -18 -18 -18 -18 -19 -18 -18 -18 -18 -18 -18 -19 -19 -19 -19 -19 -19 -20 -20 -20 -20 -21 -21 -21 -22 -22 -23 -24 -25 -24 -25 -25 -25 -25
-18 -18 -18 -18 -19 -19 -19 -18 -18 -19 -19 -19 -19 -19 -19 -19 -19 -19 -19 -19 -19 -19 -19 -19 -20 -20 -21 -21 -21 -21 -21 -22 -22 -22 -24 -24 -25 -25 -25 -25 -26 -26 -26 -26
-18 -18 -19 -19 -18 -19 -19 -19 -19 -19 -19 -19 -19 -19 -19 -19 -19 -19 -19 -19 -20 -20 -20 -20 -21 -21 -22 -22 -22 -23 -22 -22 -23 -23 -24 -25 -26 -26 -27 -27 -27 -27 -27 -27
-18 -19 -19 -19 -19 -19 -19 -19 -19 -19 -19 -19 -19 -19 -19 -19 -19 -19 -19 -19 -19 -19 -20 -20 -21 -21 -21 -22 -22 -23 -23 -23 -24 -24 -27 -27 -27 -28 -28 -28 -28 -28 -28 -28
-19 -19 -19 -19 -19 -19 -19 -20 -20 -20 -19 -20 -20 -19 -19 -19 -19 -19 -19 -20 -19 -20 -20 -20 -21 -21 -22 -23 -23 -24 -24 -25 -26 -26 -27 -28 -28 -28 -28 -29 -29 -29 -29 -29
-19 -20 -20 -19 -19 -19 -20 -20 -19 -19 -20 -20 -20 -20 -20 -20 -20 -19 -20 -20 -20 -20 -20 -21 -21 -22 -23 -24 -24 -25 -25 -26 -27 -28 -28 -29 -29 -29 -29 -29 -29 -29 -29 -29
-19 -20 -20 -20 -20 -20 -20 -20 -20 -20 -20 -20 -20 -20 -20 -20 -20 -20 -20 -20 -21 -21 -21 -22 -22 -23 -24 -25 -26 -27 -27 -28 -28 -28 -29 -29 -29 -29 -29 -29 -29 -30 -30 -30
-19 -20 -20 -20 -20 -20 -21 -20 -20 -20 -20 -20 -20 -20 -20 -20 -20 -20 -21 -21 -22 -22 -23 -23 -24 -24 -25 -26 -28 -30 -30 -29 -29 -29 -29 -29 -30 -30 -29 -29 -30 -30 -29 -30
-20 -20 -20 -21 -21 -20 -21 -21 -21 -20 -20 -20 -20 -20 -21 -20 -20 -21 -21 -22 -22 -23 -24 -24 -24 -25 -26 -27 -29 -30 -31 -31 -30 -30 -30 -29 -30 -30 -30 -30 -30 -30 -30 -30
-21 -21 -21 -21 -21 -21 -21 -21 -21 -21 -21 -21 -21 -21 -20 -20 -21 -21 -22 -22 -23 -23 -24 -24 -25 -26 -28 -29 -30 -31 -32 -31 -31 -31 -30 -30 -30 -30 -30 -30 -30 -30 -30 -30
-21 -21 -22 -22 -22 -21 -21 -21 -21 -21 -21 -21 -21 -21 -21 -21 -21 -22 -23 -23 -24 -24 -24 -25 -26 -27 -29 -30 -32 -32 -32 -32 -32 -31 -31 -31 -31 -31 -31 -30 -30 -30 -30 -30
-21 -21 -22 -22 -22 -22 -22 -22 -22 -21 -21 -21 -22 -21 -22 -22 -23 -23 -24 -24 -25 -25 -26 -27 -28 -30 -31 -32 -32 -33 -33 -33 -33 -32 -32 -32 -31 -31 -31 -31 -31 -30 -30 -30
-21 -21 -21 -21 -21 -22 -22 -22 -22 -21 -21 -22 -22 -23 -23 -23 -24 -24 -25 -25 -26 -27 -28 -29 -30 -31 -32 -32 -33 -33 -33 -34 -34 -34 -34 -33 -33 -32 -32 -32 -31 -31 -31 -31
-22 -22 -22 -22 -22 -22 -22 -22 -22 -22 -22 -23 -23 -23 -24 -24 -25 -25 -25 -26 -27 -28 -30 -31 -32 -32 -33 -33 -34 -34 -34 -34 -34 -34 -34 -34 -34 -33 -33 -33 -33 -32 -32 -32
-22 -22 -22 -22 -22 -22 -22 -22 -22 -23 -23 -23 -24 -24 -25 -25 -25 -26 -27 -29 -30 -31 -32 -33 -33 -34 -34 -34 -34 -34 -35 -35 -35 -36 -36 -34 -34 -33 -33 -33 -33 -33 -33 -32
-22 -22 -22 -22 -23 -23 -23 -24 -24 -24 -25 -25 -26 -26 -25 -26 -27 -29 -30 -31 -32 -33 -34 -34 -34 -34 -35 -35 -35 -35 -35 -35 -35 -35 -35 -35 -34 -34 -33 -33 -33 -33 -33 -33
-22 -23 -23 -23 -23 -24 -24 -25 -25 -25 -26 -26 -26 -26 -26 -28 -30 -31 -32 -33 -34 -34 -35 -35 -35 -35 -36 -36 -36 -36 -36 -36 -36 -36 -36 -35 -35 -35 -35 -34 -34 -34 -34 -34
-23 -23 -23 -24 -24 -25 -25 -25 -26 -26 -26 -26 -26 -27 -29 -30 -32 -33 -34 -35 -35 -36 -36 -36 -36 -36 -36 -36 -36 -36 -36 -36 -36 -36 -36 -36 -36 -36 -35 -35 -35 -35 -34 -34
-24 -24 -25 -25 -24 -25 -26 -26 -26 -26 -27 -27 -29 -30 -31 -32 -34 -35 -35 -36 -36 -36 -37 -37 -37 -37 -37 -37 -37 -37 -37 -37 -36 -36 -36 -36 -36 -35 -35 -35 -34 -34 -34 -34
-24 -25 -25 -26 -26 -26 -26 -26 -27 -27 -29 -30 -31 -32 -33 -34 -35 -37 -37 -37 -37 -37 -37 -37 -37 -37 -37 -37 -37 -37 -37 -36 -36 -36 -36 -36 -35 -35 -35 -34 -34 -34 -33 -33
-25 -26 -26 -27 -27 -27 -27 -27 -28 -29 -31 -31 -33 -34 -35 -36 -37 -37 -37 -37 -37 -37 -37 -37 -38 -38 -38 -38 -37 -37 -37 -36 -36 -36 -35 -35 -35 -34 -34 -34 -33 -33 -32 -32
-27 -27 -27 -27 -27 -27 -28 -29 -30 -31 -32 -33 -34 -35 -36 -37 -38 -38 -38 -38 -37 -38 -38 -38 -38 -38 -38 -38 -37 -37 -36 -36 -36 -35 -35 -35 -34 -34 -33 -33 -33 -32 -32 -31
-27 -27 -27 -28 -29 -29 -30 -31 -32 -32 -34 -35 -35 -36 -37 -37 -38 -38 -38 -38 -38 -38 -38 -38 -38 -38 -38 -37 -37 -36 -36 -35 -35 -35 -35 -34 -34 -33 -33 -32 -32 -31 -31 -31
Height
5808 5806 5805 5802 5799 5795 5793 5789 5790 5786 5785 5779 5778 5776 5773 5771 5768 5766 5762 5760 5756 5752 5748 5744 5739 5735 5730 5724 5718 5713 5708 5702 5697 5691 5685 5678 5673 5667 5661 5656 5650 5645 5641 5638
5800 5798 5796 5795 5792 5789 5785 5782 5782 5779 5777 5771 5771 5768 5766 5764 5761 5759 5756 5752 5749 5744 5740 5735 5730 5725 5720 5715 5709 5703 5698 5692 5686 5680 5673 5667 5661 5656 5650 5644 5639 5634 5629 5626
5793 5790 5787 5786 5783 5779 5777 5776 5773 5773 5769 5765 5763 5761 5760 5756 5752 5750 5747 5744 5739 5735 5731 5726 5721 5716 5710 5705 5698 5692 5685 5679 5674 5669 5661 5654 5648 5643 5638 5633 5627 5622 5618 5614
5785 5783 5780 5777 5774 5772 5768 5765 5763 5763 5761 5758 5756 5755 5751 5746 5744 5742 5737 5733 5729 5725 5719 5714 5709 5704 5697 5692 5686 5680 5673 5667 5659 5653 5646 5640 5634 5628 5624 5620 5615 5610 5605 5601
5776 5775 5772 5766 5767 5765 5761 5756 5755 5754 5751 5749 5748 5746 5742 5738 5734 5730 5727 5722 5718 5713 5708 5702 5696 5689 5683 5678 5671 5664 5657 5649 5643 5638 5628 5623 5617 5612 5608 5605 5601 5596 5592 5588
5768 5765 5763 5760 5758 5755 5750 5748 5748 5747 5744 5742 5740 5736 5732 5728 5724 5720 5716 5711 5707 5701 5695 5688 5682 5674 5667 5660 5653 5647 5640 5631 5625 5620 5610 5604 5599 5596 5592 5588 5586 5582 5579 5575
5758 5756 5756 5750 5748 5746 5743 5744 5740 5738 5736 5731 5729 5726 5722 5718 5714 5709 5705 5700 5694 5688 5681 5674 5666 5658 5651 5642 5634 5627 5621 5617 5610 5601 5595 5589 5584 5579 5576 5573 5571 5568 5565 5562
5749 5747 5745 5742 5736 5738 5736 5733 5731 5728 5724 5721 5717 5714 5710 5706 5702 5697 5691 5687 5681 5675 5668 5661 5652 5642 5634 5627 5619 5610 5602 5595 5588 5582 5575 5572 5569 5565 5561 5558 5556 5554 5552 5549
5743 5738 5734 5728 5726 5727 5727 5726 5720 5715 5713 5709 5706 5702 5697 5693 5688 5684 5679 5673 5666 5659 5653 5644 5634 5625 5618 5609 5600 5592 5584 5575 5569 5564 5559 5555 5554 5552 5548 5544 5542 5540 5539 5537
5733 5728 5724 5720 5720 5718 5718 5714 5708 5706 5702 5699 5694 5690 5685 5680 5676 5671 5664 5657 5650 5643 5635 5626 5617 5607 5597 5589 5582 5574 5565 5555 5551 5548 5545 5541 5539 5538 5535 5532 5529 5526 5524 5523
5721 5719 5714 5710 5709 5707 5706 5700 5697 5694 5690 5686 5681 5676 5671 5666 5661 5655 5648 5641 5632 5624 5615 5606 5596 5587 5578 5567 5557 5551 5544 5539 5535 5530 5531 5528 5525 5523 5521 5519 5516 5514 5511 5509
5709 5708 5704 5701 5699 5698 5694 5690 5686 5683 5678 5674 5669 5664 5658 5653 5646 5639 5632 5623 5614 5603 5594 5584 5575 5564 5556 5546 5536 5530 5523 5522 5518 5516 5514 5512 5509 5508 5506 5504 5502 5499 5497 5495
5701 5698 5694 5691 5688 5685 5681 5678 5673 5670 5665 5660 5655 5649 5644 5637 5629 5621 5612 5602 5593 5582 5572 5562 5552 5541 5530 5522 5515 5510 5506 5503 5500 5497 5494 5492 5490 5489 5490 5490 5486 5485 5482 5480
5691 5687 5684 5682 5677 5673 5670 5665 5661 5657 5651 5646 5640 5633 5626 5619 5610 5601 5590 5580 5571 5562 5550 5538 5528 5516 5502 5495 5490 5487 5485 5483 5479 5477 5475 5473 5472 5471 5471 5471 5471 5469 5464 5463
5680 5677 5673 5669 5666 5662 5658 5653 5649 5644 5638 5632 5625 5617 5609 5600 5591 5581 5569 5558 5549 5538 5525 5513 5501 5492 5479 5471 5466 5462 5460 5459 5457 5456 5455 5454 5453 5452 5451 5450 5450 5451 5450 5447
5670 5666 5663 5659 5655 5650 5646 5641 5636 5631 5624 5616 5607 5598 5589 5579 5569 5559 5549 5536 5523 5513 5500 5486 5475 5465 5457 5449 5443 5439 5437 5436 5435 5434 5433 5433 5432 5431 5431 5431 5431 5431 5431 5429
5658 5654 5650 5646 5641 5637 5632 5626 5620 5613 5606 5597 5588 5578 5569 5559 5550 5539 5526 5512 5499 5486 5471 5459 5451 5443 5435 5428 5422 5418 5416 5415 5414 5415 5415 5414 5413 5412 5412 5412 5412 5413 5412 5410
5646 5642 5638 5633 5629 5624 5618 5611 5604 5597 5589 5579 5570 5560 5548 5535 5523 5513 5501 5488 5476 5465 5453 5440 5430 5423 5418 5411 5406 5402 5399 5397 5396 5396 5396 5396 5396 5396 5395 5394 5394 5394 5395 5394
5634 5629 5625 5620 5615 5609 5602 5595 5587 5579 5569 5559 5549 5538 5526 5512 5499 5488 5475 5463 5451 5441 5435 5424 5416 5409 5402 5396 5391 5387 5384 5382 5381 5382 5377 5378 5379 5379 5379 5378 5378 5377 5377 5376
5622 5617 5613 5607 5600 5593 5586 5577 5569 5560 5550 5539 5528 5516 5505 5493 5478 5465 5453 5443 5430 5421 5413 5407 5401 5396 5389 5384 5379 5375 5372 5369 5367 5365 5364 5363 5362 5361 5362 5361 5360 5359 5359 5357
5610 5604 5599 5592 5585 5577 5567 5559 5550 5542 5531 5517 5504 5493 5482 5470 5456 5443 5432 5423 5418 5409 5402 5395 5389 5383 5378 5374 5369 5365 5361 5358 5356 5354 5352 5350 5349 5347 5346 5344 5342 5340 5338 5336
5596 5590 5583 5576 5568 5560 5550 5540 5529 5518 5508 5497 5485 5471 5457 5446 5435 5428 5418 5406 5402 5396 5390 5384 5379 5374 5369 5365 5361 5357 5354 5350 5347 5345 5343 5341 5339 5337 5336 5333 5331 5329 5327 5325
5581 5575 5567 5559 5550 5541 5531 5519 5508 5496 5486 5473 5460 5450 5438 5427 5416 5407 5405 5399 5391 5385 5380 5374 5369 5365 5361 5357 5353 5350 5347 5343 5340 5337 5334 5332 5330 5328 5326 5324 5322 5320 5317 5315
5565 5557 5549 5541 5532 5523 5513 5502 5489 5475 5462 5450 5439 5428 5418 5412 5408 5397 5390 5385 5380 5376 5370 5365 5361 5357 5353 5349 5346 5343 5339 5336 5333 5330 5327 5324 5321 5319 5317 5315 5314 5312 5310 5308
5549 5540 5531 5522 5513 5503 5492 5479 5467 5455 5443 5432 5423 5413 5405 5397 5390 5386 5380 5376 5371 5366 5362 5357 5353 5350 5346 5342 5338 5334 5331 5327 5325 5322 5319 5317 5315 5313 5311 5309 5307 5306 5304 5302
5531 5523 5514 5504 5492 5480 5468 5455 5445 5435 5425 5416 5409 5400 5393 5386 5380 5375 5370 5366 5362 5358 5354 5350 5347 5343 5339 5334 5329 5325 5321 5318 5316 5314 5312 5310 5309 5307 5305 5304 5302 5300 5299 5297
5516 5506 5496 5486 5471 5459 5448 5437 5426 5419 5410 5400 5393 5387 5381 5376 5371 5365 5361 5357 5354 5351 5347 5343 5339 5335 5330 5325 5320 5315 5311 5309 5307 5306 5306 5305 5303 5302 5301 5299 5297 5296 5294 5294
Wind_Speed
32 32 30 34 32 30 29 29 24 27 23 28 26 25 22 19 19 20 19 21 24 25 27 29 31 33 36 39 43 45 47 48 48 49 48 48 47 47 47 46 44 43 43 41
34 34 35 35 29 29 29 28 25 27 25 31 27 26 24 22 23 23 24 26 28 31 34 36 36 37 40 44 45 49 48 48 49 50 51 52 50 49 49 49 47 45 44 43
34 35 38 35 29 32 32 28 27 26 28 30 30 30 28 28 28 27 29 32 34 36 38 40 41 43 46 48 50 50 53 51 52 51 54 56 55 53 51 49 49 47 45 43
36 36 39 35 30 28 31 32 33 30 29 30 30 29 29 33 32 33 34 35 37 40 43 45 47 49 52 54 56 57 59 54 53 53 56 58 58 56 52 50 48 48 46 44
36 37 39 38 31 28 29 34 33 30 31 32 32 32 33 34 35 37 38 39 41 44 47 49 52 55 57 59 60 61 60 56 52 52 60 60 60 55 51 48 47 48 47 43
36 40 39 35 32 30 33 34 32 30 33 33 32 33 34 35 37 38 39 41 44 48 51 55 57 60 61 62 61 60 63 57 55 56 61 60 57 50 47 48 46 46 45 42
39 42 37 37 37 32 34 34 33 32 33 34 35 35 36 37 38 39 41 44 46 51 54 56 59 61 62 63 64 61 60 56 58 62 61 56 51 46 47 47 46 45 42 41
41 43 39 37 40 35 34 33 33 34 36 36 37 38 38 40 42 43 45 48 52 55 59 62 64 66 68 67 67 64 64 61 64 63 54 52 49 48 50 47 45 42 40 40
42 40 40 42 40 36 31 31 34 38 39 39 40 40 42 44 46 48 50 53 58 62 64 67 69 72 72 69 69 66 62 65 64 57 52 45 46 48 49 45 44 41 39 39
40 38 40 42 39 35 33 33 39 40 41 42 41 43 45 47 49 51 56 60 65 68 70 73 75 76 73 70 69 67 64 64 56 49 44 44 52 53 44 40 41 40 39 39
40 37 39 40 39 38 37 39 42 43 44 44 45 47 49 50 53 58 62 67 71 73 75 76 77 76 72 71 69 67 65 59 55 41 49 46 52 52 43 40 40 38 38 38
43 41 40 40 40 39 40 42 44 45 46 47 48 49 50 54 59 64 67 71 73 74 77 77 77 77 77 74 68 52 56 58 46 42 44 53 45 44 46 42 41 43 43 41
42 43 43 42 42 43 44 46 48 49 50 51 51 53 56 61 65 69 72 76 78 78 80 81 82 82 81 77 68 61 60 55 50 50 53 56 49 46 44 48 48 46 47 48
42 42 42 41 43 45 47 49 50 52 54 54 56 59 64 68 71 75 79 81 81 82 83 84 85 85 83 77 68 60 55 57 56 56 54 56 51 52 52 48 53 48 46 50
41 40 42 43 44 47 49 51 52 53 55 58 61 65 68 72 76 79 82 83 85 86 87 86 85 82 78 72 65 61 57 58 61 62 60 58 59 58 57 53 54 55 53 52
41 41 42 44 46 48 50 51 53 57 60 63 67 71 74 77 80 83 85 85 87 87 85 83 80 73 67 62 59 57 56 57 63 63 63 59 60 63 59 58 55 55 55 53
41 42 45 47 50 51 53 55 58 62 65 68 72 75 77 80 83 84 85 86 86 84 80 75 70 64 59 56 54 53 52 50 53 53 51 50 50 50 51 52 54 55 55 57
42 45 47 50 52 54 57 59 63 66 68 71 74 79 82 84 87 88 90 88 84 77 69 66 62 58 54 51 48 46 43 42 43 44 53 51 46 47 47 48 49 51 51 52
45 47 50 52 55 58 62 65 68 72 74 78 81 83 84 88 90 89 85 80 73 68 61 58 55 51 48 45 43 40 37 36 35 28 43 49 55 54 52 52 52 53 55 56
48 51 53 56 59 63 66 68 71 75 78 79 81 84 87 89 85 79 74 68 63 60 56 52 49 44 40 36 34 32 31 31 33 36 36 37 41 47 57 61 63 64 63 65
52 54 57 60 64 66 68 71 75 78 79 82 86 88 88 81 74 70 66 61 54 51 47 44 42 38 35 31 30 29 29 29 29 30 31 30 29 30 31 34 37 41 43 43
55 58 61 64 66 68 72 76 78 81 84 87 87 83 79 72 66 61 56 53 48 44 42 39 37 35 33 31 29 27 27 26 25 24 24 25 27 28 28 28 30 30 32 32
60 62 64 67 71 74 76 79 83 85 86 83 79 74 70 64 59 56 49 44 43 40 37 35 33 32 30 28 27 26 25 24 24 23 24 26 27 27 26 27 27 26 26 25
63 66 69 71 74 76 79 82 84 83 78 74 71 67 62 54 48 47 45 42 39 37 34 32 30 28 28 28 28 28 27 26 26 25 25 24 23 24 23 23 23 22 21 19
66 69 72 75 76 80 83 84 82 74 70 67 64 59 54 48 47 42 39 37 35 33 30 28 26 27 29 31 32 31 30 29 27 25 24 22 22 21 21 20 19 18 18 17
69 72 74 77 81 83 82 79 72 68 65 61 57 54 49 46 44 41 37 34 32 30 27 26 27 30 32 35 36 34 32 30 27 25 23 21 19 19 18 18 17 17 16 16
70 74 77 79 79 77 74 70 67 64 59 55 53 49 47 42 40 36 32 30 29 28 26 27 30 33 36 38 36 33 30 26 24 21 19 17 16 16 16 16 15 15 12 10
Wind_Direction
292 296 298 308 303 297 297 289 289 285 289 281 291 294 295 294 300 309 315 318 318 321 325 325 326 328 329 327 327 328 327 323 319 316 313 311 309 307 304 303 299 295 292 290
290 295 299 307 297 293 288 287 287 285 284 285 290 293 293 291 291 290 298 303 307 310 315 318 318 320 321 321 321 323 322 319 317 312 308 305 303 302 301 300 298 295 291 289
291 295 300 305 297 293 287 282 278 277 278 283 285 286 287 286 280 287 295 302 306 308 311 312 314 315 316 316 318 318 319 315 313 310 303 300 299 299 298 297 296 294 291 289
292 297 303 299 295 291 285 285 285 283 281 280 284 288 288 284 283 289 294 298 304 307 309 311 312 314 315 316 316 316 315 318 306 302 299 298 298 296 296 294 294 292 290 288
290 298 301 299 296 288 282 280 284 286 284 285 290 290 288 288 288 288 292 297 303 304 308 311 312 313 313 313 313 314 315 312 305 300 297 296 296 296 295 294 291 290 289 287
288 298 301 296 290 286 279 280 285 284 287 290 288 286 288 291 293 296 298 300 304 306 309 312 312 311 311 311 311 313 313 305 301 297 296 297 296 293 290 290 288 287 286 285
289 297 298 290 292 282 281 287 291 290 289 286 288 288 288 290 292 293 296 300 303 306 309 311 310 308 309 309 310 309 307 305 295 295 293 294 293 292 291 289 289 286 284 281
290 296 293 290 285 284 287 290 290 290 287 288 287 291 293 292 293 296 297 301 304 305 307 308 309 310 310 310 310 309 306 300 295 293 292 291 289 290 290 288 287 283 281 278
294 293 291 287 288 291 291 291 286 284 289 291 291 292 293 294 294 297 299 302 305 305 306 309 310 309 310 310 309 307 300 294 292 294 292 287 281 289 289 285 284 280 278 276
292 287 285 288 290 289 288 287 284 289 291 293 293 293 294 295 298 302 304 305 305 306 308 310 310 309 310 308 305 301 293 293 294 292 290 284 284 285 289 284 282 282 280 278
295 289 289 289 288 289 291 290 291 294 294 295 295 296 298 300 303 305 306 306 306 308 309 309 309 309 308 304 299 295 293 295 295 288 272 273 283 280 282 282 282 281 279 279
292 291 287 286 288 291 288 290 293 294 295 295 297 298 301 303 305 305 305 305 306 308 309 310 309 308 306 301 298 292 288 291 284 267 265 271 282 275 275 276 280 279 278 277
288 287 288 290 290 290 292 295 296 297 297 299 301 302 302 303 304 305 305 307 309 310 310 310 309 305 301 297 294 289 284 282 275 268 254 270 272 271 267 273 278 278 278 277
285 287 287 289 291 292 293 295 297 298 300 300 301 303 304 304 305 307 308 309 310 311 310 309 306 301 299 297 294 287 276 270 273 273 272 273 269 272 267 277 272 269 280 276
286 287 287 289 291 293 294 295 296 297 299 301 302 303 304 306 308 308 309 310 311 311 309 305 301 298 296 294 292 287 277 269 269 268 271 267 268 273 277 271 271 269 266 278
288 286 288 289 291 293 294 296 298 299 301 304 305 306 307 309 309 309 310 312 311 310 306 303 301 299 298 295 292 286 280 276 270 270 273 274 268 268 272 273 277 272 274 280
289 291 293 295 296 297 298 299 301 302 304 305 307 308 308 308 309 311 313 312 309 306 304 303 302 302 301 298 294 289 286 280 274 268 270 270 272 272 273 274 275 276 276 279
291 294 297 296 298 298 300 301 301 302 305 306 306 308 309 312 314 315 314 310 307 305 306 304 305 305 303 300 296 293 290 287 283 279 266 262 263 266 267 269 271 272 273 275
295 296 297 299 300 301 302 303 306 307 307 308 309 311 315 315 315 313 309 307 306 307 306 306 307 305 303 300 299 297 293 286 284 273 275 269 262 263 268 269 270 273 275 277
296 297 298 299 301 302 304 306 307 308 309 311 313 315 315 314 311 308 307 308 308 310 311 310 308 306 305 305 303 300 293 285 279 280 281 281 275 271 272 272 272 273 274 278
297 299 300 301 302 304 307 308 308 309 313 315 316 315 313 312 309 308 309 310 310 309 309 309 309 309 308 308 305 303 300 295 291 288 288 290 288 285 284 284 283 282 281 283
298 299 301 303 305 306 307 310 313 315 315 314 314 313 313 311 310 309 310 310 311 312 310 310 310 309 307 307 307 306 305 302 297 296 296 297 295 294 292 290 291 290 290 292
300 302 305 305 308 311 313 315 315 314 315 314 314 314 311 312 311 310 309 308 311 311 309 308 311 312 312 312 311 310 309 307 304 303 302 301 299 298 293 292 294 295 297 298
304 306 309 310 311 314 314 313 315 316 315 315 315 313 313 314 311 309 310 311 312 311 310 310 311 311 313 314 313 309 306 302 303 304 305 305 303 303 303 301 301 301 302 301
307 309 312 314 314 313 314 316 317 317 317 316 316 314 315 314 312 312 309 310 310 311 311 310 309 310 313 313 310 307 303 299 299 304 304 305 306 305 305 304 305 305 306 306
310 312 314 314 315 316 317 318 318 318 317 315 315 313 315 314 312 310 308 308 309 310 309 308 309 312 314 313 312 308 303 298 294 298 302 304 306 305 305 306 308 309 308 308
313 313 314 316 316 317 317 318 317 317 316 314 313 313 313 313 311 310 307 306 307 306 306 308 310 312 314 315 314 313 309 302 294 291 296 301 303 304 306 308 310 310 311 312